Regional Weather Roundup
Issued by NWS

Home | Current Version | Previous Version | Text Only | Print | Product List | Glossary Off
Versions: 1 2 3 4 5 6 7 8 9 10 11 12 13 14 15 16 17 18 19 20 21 22 23 24 25 26 27 28 29 30 31 32 33 34 35 36 37 38 39 40 41 42 43 44 45 46 47 48 49 50

000
ASUS43 KDMX 281308
RWRIA

WEATHER ROUNDUP FOR IOWA
NATIONAL WEATHER SERVICE DES MOINES IA
800 AM CDT SUN AUG 28 2016

NOTE: "FAIR" INDICATES FEW OR NO CLOUDS BELOW 12,000 FEET WITH NO
SIGNIFICANT WEATHER AND/OR OBSTRUCTIONS TO VISIBILITY.

* - THESE STATIONS ARE NOT NWS STATIONS...THUS NOT UNDER NWS
QUALITY CONTROL.  THEY ALSO DO NOT REPORT WEATHER SUCH
AS PRECIPITATION OR FOG.

IAZ001>003-012>014-020>022-031>034-043>046-281400-
   NORTHWEST IOWA

CITY           SKY/WX    TMP DP  RH WIND       PRES   REMARKS
CARROLL *      FOG       63  63 100 CALM      30.13R VSB 1/4
CHEROKEE *     CLOUDY    65  65 100 S5        30.11R
DENISON *      FOG       64  64 100 MISG      30.10S VSB<1/4
LE MARS *      SUNNY     68  66  94 S7        30.09S
ORANGE CITY *  SUNNY     66  64  94 SE3       30.10S
SHELDON *      SUNNY     66  66 100 SE7       30.10R
SIOUX CITY     CLOUDY    66  63  90 SE7       30.08S FOG
SPENCER        PTSUNNY   65  63  93 SE9       30.13R FOG
STORM LAKE *   CLOUDY    66  66 100 S7        30.13R FOG
$$

IAZ055>058-069>071-079>083-090>094-281400-
   SOUTHWEST IOWA

CITY           SKY/WX    TMP DP  RH WIND       PRES   REMARKS
ATLANTIC *     SUNNY     64  64 100 CALM      30.11S
AUDUBON *      SUNNY     63  59  88 CALM      30.13S
CLARINDA *       N/A     68  68 100 MISG      30.13R
COUNCIL BLFS * SUNNY     68  68 100 SE6       30.10S
CRESTON *      SUNNY     70  68  94 SE5       30.14R
HARLAN  *      SUNNY     64  64 100 CALM      30.15R FOG
LAMONI         SUNNY     70  69  97 SE6       30.13R
RED OAK *      SUNNY     70  68  94 CALM      30.10S
SHENANDOAH *   SUNNY     68 -38   1 CALM      30.10S
$$

IAZ047>049-059>061-072>074-084-281400-
   CENTRAL IOWA

CITY           SKY/WX    TMP DP  RH WIND       PRES   REMARKS
AMES           SUNNY     66  66 100 CALM      30.13S
ANKENY *         N/A    N/A N/A N/A MISG        N/A
BOONE *          N/A     66  66 100 SE5       30.13S FOG
CHARITON *       N/A     70  68  94 MISG      30.13R
DES MOINES     MOSUNNY   72  69  90 E5        30.12R
GRINNELL*      MOSUNNY   67  66  96 E5        30.16S FOG
KNOXVILLE *    SUNNY     70  68  94 E6        30.13R
MARSHALLTOWN   MOSUNNY   67  66  97 SE5       30.14R FOG
NEWTON *       SUNNY     70  70 100 E7        30.14R
PELLA *        MOSUNNY   70  69  96 E3        30.15R
PERRY *        FOG       65  65 100 CALM      30.13S VSB<1/4
$$

IAZ004>006-015-016-023>025-035-036-281400-
   NORTH CENTRAL IOWA

CITY           SKY/WX    TMP DP  RH WIND       PRES   REMARKS
ALGONA *       SUNNY     66  66 100 S6        30.13F FOG
ESTHERVILLE    FOG       63  63 100 S10       30.13R VSB<1/4
FORT DODGE *   SUNNY     64  64 100 E3        30.14R
MASON CITY     PTSUNNY   63  62  97 CALM      30.16S FOG
FOREST CITY *    N/A    N/A N/A N/A MISG        N/A
WEBSTER CITY * SUNNY     66  66 100 SE6       30.12S FOG
IOWA FALLS *     N/A     65  64  97 CALM      30.16S FOG
$$

IAZ007>011-017>019-026>030-037>042-050>054-066-281400-
   NORTHEAST IOWA

CITY           SKY/WX    TMP DP  RH WIND       PRES   REMARKS
CEDAR RAPIDS   SUNNY     68  68 100 SE3       30.16R
CHARLES CITY * SUNNY     64  64 100 CALM      30.16S FOG
CLINTON *      SUNNY     70  69  97 SE3       30.17R
DECORAH *      SUNNY     63  63 100 SE5       30.17R
DUBUQUE        MOSUNNY   70  68  93 NE3       30.19R
MONTICELLO *   PTSUNNY   64  63  94 CALM      30.17R FOG
OELWEIN *      SUNNY     66  66 100 CALM      30.18R
WATERLOO       SUNNY     64  62  93 CALM      30.15R
$$

IAZ064-065-067-068-078-281400-
   EAST CENTRAL IOWA

CITY           SKY/WX    TMP DP  RH WIND       PRES   REMARKS
DAVENPORT      PTSUNNY   71  69  93 E6        30.17R
IOWA CITY      MOSUNNY   71  68  90 CALM      30.18R
MT. PLEASANT * SUNNY     74  74 100 CALM      30.16R FOG
MUSCATINE *    FOG       72  72 100 E5        30.16R VSB<1/4
QUAD CITIES    SUNNY     72  68  87 E6        30.16R
$$

IAZ062-063-075>077-085>089-095>099-281400-
   SOUTHEAST IOWA

CITY           SKY/WX    TMP DP  RH WIND       PRES   REMARKS
BURLINGTON     MOSUNNY   74  74 100 CALM      30.15R
FAIRFIELD *    SUNNY     72  70  94 CALM      30.15R
FORT MADISON * SUNNY     73  73 100 CALM      30.17R
KEOKUK *       MOSUNNY   73  73 100 SE5       30.15R
OSKALOOSA *      N/A     69  68  98 E3        30.15R FOG
CENTERVILLE *    N/A     73  72  94 CALM      30.16R
OTTUMWA        SUNNY     70  68  93 E5        30.15R
WASHINGTON *   SUNNY     70  70 100 E5        30.17R FOG
$$

ABBREVIATIONS USED IN REMARKS
   TC - TEMPERATURES IN CELSIUS
  WCI - WIND CHILL INDEX
   HX - HEAT INDEX
  VSB - VISIBILITY
$$





USA.gov is the U.S. government's official web portal to all federal, state and local government web resources and services.